Location: Andrea Ville Subdivision
(14.3485°N, 120.9580°E)
Time: 12:40:45
(UTC+00:00)

SL-8 Rocket - Pass Details

Date: 13 January 2026
Orbit: 955 x 990 km, 82.9° (Epoch: 16 February)

Event Time Altitude Azimuth Distance (km) Brightness Sun altitude
Rises 10:27:14 0° 351° (N) 3,639 6.9 -10.3°
Reaches altitude 10° 10:29:45 10° 348° (NNW) 2,688 6.2 -10.9°
Maximum altitude 10:35:49 65° 268° (W) 1,041 4.4 -12.2°
Drops below altitude 10° 10:41:52 10° 187° (S) 2,676 6.6 -13.6°
Sets 10:44:23 0° 184° (S) 3,621 7.3 -14.2°
